Estación de Calama Rural INIA
Ultimos registro cada 15 minutos 55
| N° | Estación | Fecha / Hora | Temperatura | Humedad | Lluvia | Velocidad | Dirección | Radiación | Presion |
| 55 | Calama Rural INIA | 05-09-2026 13:30 | 23,6 | 13,3 | 0 | 3,3 | 229 | 709,9 | 779,7 |
| 54 | Calama Rural INIA | 05-09-2026 13:15 | 23,6 | 12,8 | 0 | 3,4 | 232 | 720,3 | 779,8 |
| 53 | Calama Rural INIA | 05-09-2026 13:00 | 23,2 | 12,3 | 0 | 3,8 | 237 | 726,7 | 779,9 |
| 52 | Calama Rural INIA | 05-09-2026 12:45 | 23,3 | 13,7 | 0 | 3,2 | 238 | 730,5 | 780 |
| 51 | Calama Rural INIA | 05-09-2026 12:30 | 22,8 | 16,2 | 0 | 3,1 | 240 | 732,6 | 780,2 |
| 50 | Calama Rural INIA | 05-09-2026 12:15 | 22,5 | 14,2 | 0 | 3 | 236 | 740,5 | 780,3 |
| 49 | Calama Rural INIA | 05-09-2026 12:00 | 22,5 | 12 | 0 | 2,7 | 234 | 672,7 | 780,5 |
| 48 | Calama Rural INIA | 05-09-2026 11:45 | 22,2 | 12,1 | 0 | 2,2 | 245 | 660,7 | 780,7 |
| 47 | Calama Rural INIA | 05-09-2026 11:30 | 22,2 | 12,6 | 0 | 1,7 | 242 | 513,5 | 780,7 |
| 46 | Calama Rural INIA | 05-09-2026 11:15 | 22,3 | 14,7 | 0 | 3,1 | 235 | 709 | 780,8 |
| 45 | Calama Rural INIA | 05-09-2026 11:00 | 22,1 | 12,2 | 0 | 2,4 | 231 | 647 | 781,1 |
| 44 | Calama Rural INIA | 05-09-2026 10:45 | 21,9 | 13,9 | 0 | 1,7 | 240 | 569,4 | 781,2 |
| 43 | Calama Rural INIA | 05-09-2026 10:30 | 23,3 | 13,6 | 0 | 0,4 | 240 | 617,8 | 781,1 |
| 42 | Calama Rural INIA | 05-09-2026 10:15 | 23,8 | 11,3 | 0 | 0 | 205 | 581,9 | 781,2 |
| 41 | Calama Rural INIA | 05-09-2026 10:00 | 22,5 | 11,4 | 0 | 0 | 0 | 545,8 | 781 |
| 40 | Calama Rural INIA | 05-09-2026 09:45 | 20,9 | 13,5 | 0 | 0,1 | 60 | 504,8 | 781 |
| 39 | Calama Rural INIA | 05-09-2026 09:30 | 19,2 | 12,7 | 0 | 0,2 | 81 | 468,8 | 781,1 |
| 38 | Calama Rural INIA | 05-09-2026 09:15 | 17,4 | 14,3 | 0 | 0,7 | 70 | 279,5 | 781 |
| 37 | Calama Rural INIA | 05-09-2026 09:00 | 17,5 | 15 | 0 | 2,2 | 80 | 313,5 | 781 |
| 36 | Calama Rural INIA | 05-09-2026 08:45 | 16 | 14,5 | 0 | 2,4 | 72 | 380,8 | 780,9 |
| 35 | Calama Rural INIA | 05-09-2026 08:30 | 14,4 | 18,3 | 0 | 3,1 | 73 | 291,1 | 780,6 |
| 34 | Calama Rural INIA | 05-09-2026 08:15 | 12,5 | 19,6 | 0 | 3 | 77 | 193,4 | 780,4 |
| 33 | Calama Rural INIA | 05-09-2026 08:00 | 11,2 | 20,3 | 0 | 3,2 | 74 | 192,3 | 780,6 |
| 32 | Calama Rural INIA | 05-09-2026 07:45 | 9,9 | 21,4 | 0 | 2,1 | 81 | 135,4 | 780,5 |
| 31 | Calama Rural INIA | 05-09-2026 07:30 | 9,1 | 22,6 | 0 | 2 | 83 | 49,9 | 780,3 |
| 30 | Calama Rural INIA | 05-09-2026 07:15 | 8,7 | 23,3 | 0 | 2,5 | 77 | 33 | 780,2 |
| 29 | Calama Rural INIA | 05-09-2026 07:00 | 8,3 | 23,1 | 0 | 2,1 | 75 | 19,4 | 780,3 |
| 28 | Calama Rural INIA | 05-09-2026 06:45 | 8,7 | 24,7 | 0 | 0,5 | 72 | 9,1 | 780,5 |
| 27 | Calama Rural INIA | 05-09-2026 06:30 | 8,9 | 23,1 | 0 | 1,4 | 67 | 8,5 | 780,5 |
| 26 | Calama Rural INIA | 05-09-2026 06:15 | 9,1 | 22,7 | 0 | 0,5 | 62 | 8,4 | 780,5 |
| 25 | Calama Rural INIA | 05-09-2026 06:00 | 9,2 | 23,5 | 0 | 0 | 53 | 8,4 | 780,6 |
| 24 | Calama Rural INIA | 05-09-2026 05:45 | 9 | 22,6 | 0 | 0,4 | 53 | 9,1 | 780,7 |
| 23 | Calama Rural INIA | 05-09-2026 05:30 | 8,7 | 22,4 | 0 | 0,8 | 50 | 8,6 | 780,7 |
| 22 | Calama Rural INIA | 05-09-2026 05:15 | 8,7 | 22,3 | 0 | 0,7 | 58 | 9 | 780,7 |
| 21 | Calama Rural INIA | 05-09-2026 05:00 | 8,8 | 23,6 | 0 | 0,2 | 47 | 9,1 | 780,7 |
| 20 | Calama Rural INIA | 05-09-2026 04:45 | 8,8 | 23,4 | 0 | 0 | 59 | 9,2 | 780,3 |
| 19 | Calama Rural INIA | 05-09-2026 04:30 | 8,6 | 24,2 | 0 | 0 | 0 | 9,1 | 780,5 |
| 18 | Calama Rural INIA | 05-09-2026 04:15 | 8,4 | 25,7 | 0 | 0 | 0 | 9,4 | 780,7 |
| 17 | Calama Rural INIA | 05-09-2026 04:00 | 8,8 | 23,6 | 0 | 0 | 0 | 9,2 | 780,5 |
| 16 | Calama Rural INIA | 05-09-2026 03:45 | 9 | 25,5 | 0 | 0 | 0 | 9,2 | 780,6 |
| 15 | Calama Rural INIA | 05-09-2026 03:30 | 10,2 | 24,6 | 0 | 0 | 0 | 9,1 | 780,6 |
| 14 | Calama Rural INIA | 05-09-2026 03:15 | 10,3 | 21,4 | 0 | 0 | 53 | 9 | 780,6 |
| 13 | Calama Rural INIA | 05-09-2026 03:00 | 10 | 21,4 | 0 | 1,3 | 72 | 8,7 | 780,6 |
| 12 | Calama Rural INIA | 05-09-2026 02:45 | 9,8 | 23,4 | 0 | 1 | 74 | 8,4 | 780,7 |
| 11 | Calama Rural INIA | 05-09-2026 02:30 | 10,1 | 24,3 | 0 | 0 | 0 | 8,4 | 780,6 |
| 10 | Calama Rural INIA | 05-09-2026 02:15 | 11 | 24,9 | 0 | 0,7 | 73 | 8,5 | 780,5 |
| 9 | Calama Rural INIA | 05-09-2026 02:00 | 11,2 | 26 | 0 | 0,5 | 71 | 8,4 | 780,8 |
| 8 | Calama Rural INIA | 05-09-2026 01:45 | 11,1 | 24,6 | 0 | 0,4 | 61 | 10,3 | 780,7 |
| 7 | Calama Rural INIA | 05-09-2026 01:30 | 10,4 | 24,7 | 0 | 0 | 0 | 7,9 | 781,1 |
| 6 | Calama Rural INIA | 05-09-2026 01:15 | 10,3 | 25,1 | 0 | 0 | 0 | 8,4 | 781,1 |
| 5 | Calama Rural INIA | 05-09-2026 01:00 | 10,1 | 26,5 | 0 | 0 | 0 | 7,8 | 781,2 |
| 4 | Calama Rural INIA | 05-09-2026 00:45 | 10,1 | 27 | 0 | 0 | 0 | 8 | 781,1 |
| 3 | Calama Rural INIA | 05-09-2026 00:30 | 9,8 | 27 | 0 | 0 | 0 | 10 | 781,3 |
| 2 | Calama Rural INIA | 05-09-2026 00:15 | 9,7 | 31 | 0 | 0 | 0 | 8,3 | 781,3 |
| 1 | Calama Rural INIA | 05-09-2026 00:00 | 10,1 | 27,4 | 0 | 0 | 0 | 7,8 | 781,2 |